GFSNE_sfc_wetblb_276.txt.gz
Wetbulb
73.59 72.72 72.55 74.68 71.99 72.18 70.99 70.75 68.37 63.58 67.33 68.73 67.54 72.20 74.40 73.13 71.77 73.71 71.44 69.73 68.43 68.64 68.82 68.55 68.48 69.66 70.74 71.21 71.46 71.62 71.87 73.09 74.18 74.53 74.95 75.41 76.02 76.61
72.26 72.26 72.59 72.76 71.81 71.64 69.86 69.83 70.19 68.86 65.30 67.58 68.41 69.78 71.53 71.76 70.45 71.65 71.53 68.57 68.29 67.71 66.27 66.45 67.12 67.92 67.99 69.02 70.18 70.41 70.60 71.49 72.50 72.89 73.46 73.71 74.04 74.86
71.76 70.98 70.85 71.34 71.65 70.91 69.82 68.27 66.32 66.10 65.58 64.56 66.36 68.62 70.16 70.13 70.18 72.05 72.56 71.97 71.57 68.20 67.39 66.58 66.08 66.32 66.84 66.84 67.45 68.22 69.13 69.78 70.60 71.66 72.17 72.52 72.81 73.40
70.64 69.99 68.63 67.61 64.05 61.57 61.46 61.68 63.32 64.68 65.07 65.15 67.05 68.74 68.28 69.10 69.42 69.61 69.68 70.37 71.14 69.75 67.95 65.86 65.57 65.35 65.21 65.40 65.48 65.75 66.17 67.29 68.14 69.25 70.30 71.22 71.75 72.09
68.29 67.55 66.79 66.58 64.63 61.47 57.01 55.48 55.88 56.82 56.97 60.54 61.01 65.70 66.31 66.03 66.95 67.01 66.22 65.80 66.70 67.58 65.42 65.08 65.04 65.80 65.71 64.93 63.61 62.97 62.61 63.40 64.35 65.25 66.61 67.81 69.40 70.48
65.81 65.01 63.87 63.08 62.38 62.26 60.96 59.08 56.40 55.18 54.73 53.59 55.14 56.27 57.69 61.47 63.50 63.61 63.49 66.56 66.31 67.55 66.73 64.86 65.42 67.03 66.15 64.38 63.86 64.15 62.86 61.04 60.48 60.92 61.67 63.41 65.78 67.31
63.04 61.90 60.13 58.29 56.77 56.95 57.78 58.26 58.64 57.58 57.07 57.04 54.10 55.13 54.55 54.85 56.05 57.96 58.25 61.31 63.00 63.31 61.72 62.94 64.40 66.20 67.36 64.81 66.17 66.41 63.86 62.20 61.29 59.33 58.91 59.09 60.56 62.51
59.66 60.20 60.31 57.93 57.73 56.17 55.41 55.47 56.39 57.39 56.63 55.83 55.26 55.07 56.95 57.54 56.48 55.02 55.43 55.55 54.21 60.25 60.25 61.36 64.02 63.19 63.68 63.88 64.09 63.40 62.51 61.77 61.21 60.26 59.13 58.55 58.85 59.57
59.37 59.61 58.23 58.47 58.89 58.57 58.67 58.29 58.71 56.68 55.84 56.73 55.91 56.65 56.63 58.17 58.55 57.50 56.39 55.40 55.30 58.21 59.88 56.96 59.76 59.06 61.23 61.72 61.78 61.61 61.07 60.64 59.73 58.89 58.73 58.39 58.02 57.96
60.34 60.00 59.02 58.74 57.84 55.33 56.42 56.83 57.38 57.87 58.33 57.12 56.76 56.63 57.31 57.98 58.32 58.29 57.80 57.15 57.11 57.49 60.64 54.98 58.81 58.13 60.39 61.26 61.05 60.77 59.36 58.54 58.05 57.57 57.41 57.25 56.12 55.37
59.78 59.43 58.34 58.15 52.15 52.09 54.99 55.02 55.86 56.43 57.71 56.34 55.38 55.44 54.95 54.64 55.11 55.25 54.17 54.60 54.55 56.17 59.15 57.44 57.92 57.85 59.08 59.75 60.94 60.52 58.89 57.44 56.99 57.29 57.54 56.85 55.14 54.13
59.63 59.83 56.18 54.82 51.72 51.45 53.73 54.01 53.34 54.98 55.32 55.50 56.26 57.00 57.05 57.57 56.75 56.72 55.01 53.27 54.25 54.42 59.15 56.55 57.06 57.52 56.09 60.59 61.25 62.23 63.07 57.84 56.98 56.41 56.75 56.35 54.31 64.42
56.77 56.84 57.40 53.14 51.69 51.26 51.13 53.97 53.98 53.36 53.27 54.30 55.15 54.78 55.71 56.36 56.55 57.03 57.05 53.79 52.03 53.43 58.07 56.94 56.28 56.89 56.73 56.89 59.41 60.97 61.35 61.66 62.52 61.67 54.19 53.66 53.79 57.99
55.90 55.89 56.37 51.21 50.22 50.47 51.73 52.89 52.00 52.10 54.17 52.91 52.67 52.26 52.02 51.84 52.88 54.56 56.07 56.22 56.32 55.88 57.89 57.89 54.45 54.13 53.25 54.28 55.29 59.29 60.81 61.85 61.93 61.50 62.48 59.29 53.22 53.60
55.07 54.47 52.02 50.90 50.45 51.83 52.98 52.60 52.62 52.68 51.54 51.64 51.71 52.01 52.41 52.96 55.17 55.38 55.96 57.43 57.38 57.64 57.77 58.19 55.47 55.63 55.02 53.15 54.17 55.28 56.43 58.85 60.83 61.29 61.74 62.21 63.37 64.59
55.78 55.47 54.16 53.21 52.56 52.74 53.18 54.26 53.91 53.83 52.26 51.58 51.12 52.97 52.83 52.28 51.50 52.69 51.25 52.13 53.05 52.91 56.72 57.94 57.46 56.59 54.13 54.14 55.37 54.18 55.34 55.00 59.54 61.80 62.44 62.95 63.58 64.24
49.89 53.51 53.21 53.06 52.18 52.78 53.65 53.73 54.22 53.83 52.63 52.76 52.08 51.85 51.13 49.96 49.39 50.45 50.12 49.83 50.20 50.33 50.92 53.56 57.46 57.10 55.80 55.93 53.68 55.01 54.33 55.31 58.53 59.69 61.44 59.92 61.06 61.94
50.65 51.96 52.21 52.85 51.90 53.03 52.79 52.79 52.86 52.29 52.25 52.28 51.98 51.56 52.02 49.52 48.53 49.30 49.78 49.28 48.13 48.35 49.39 50.75 52.17 52.32 52.95 55.03 56.58 54.32 54.60 54.82 56.40 59.22 60.07 58.25 58.88 61.44
51.31 52.60 52.33 53.02 51.97 52.85 53.21 52.70 52.10 53.00 53.29 52.95 52.22 51.78 52.21 51.69 50.76 50.24 50.78 49.06 47.40 47.22 47.99 49.32 49.37 50.30 48.42 47.93 53.73 54.68 54.09 55.10 56.16 55.77 57.37 58.23 57.72 59.93
54.05 54.10 53.02 53.44 53.75 53.21 53.30 53.20 53.69 54.17 53.71 52.81 52.77 52.05 51.91 51.32 50.15 50.72 50.68 50.31 50.41 48.29 46.76 48.13 48.37 48.48 48.14 48.99 49.75 53.41 50.94 55.32 55.00 54.57 55.55 57.90 59.06 56.70
54.72 54.37 54.60 54.43 54.08 54.54 54.58 53.70 53.72 53.19 53.05 52.28 51.91 51.99 52.36 52.01 50.99 51.46 51.23 47.38 48.09 47.33 44.96 45.53 48.23 51.37 50.78 50.77 48.22 50.72 54.46 50.88 53.29 55.07 55.68 54.22 54.08 56.23
55.01 54.64 54.76 54.59 54.37 53.19 51.30 50.41 49.50 49.16 48.90 48.85 49.13 49.13 49.98 51.09 51.18 50.67 49.80 48.15 48.45 48.19 45.08 47.79 49.50 49.19 47.92 47.18 46.69 50.23 51.53 54.01 52.94 51.74 52.16 52.51 52.98 51.96
54.98 54.66 54.47 54.53 52.90 50.34 49.49 49.07 48.60 48.44 48.34 48.52 48.54 48.67 49.06 48.67 49.95 50.35 48.53 49.52 49.58 46.79 47.68 46.81 47.86 48.38 46.92 46.55 46.83 47.72 48.90 50.04 51.54 53.08 54.91 54.27 52.31 52.55

GFSNE_sfc_wetblb_279.txt.gz
Wetbulb
73.81 73.55 73.90 73.72 74.92 74.51 73.57 71.58 69.16 66.20 66.02 67.69 67.72 70.81 71.90 72.76 71.85 71.89 72.21 70.66 70.19 69.14 68.94 69.55 68.77 68.32 70.30 71.30 71.75 71.91 72.19 72.37 72.44 72.61 74.08 75.14 75.58 76.53
72.41 72.69 72.46 72.91 72.89 73.88 73.11 72.64 71.19 69.04 65.98 68.45 68.62 70.06 71.50 72.15 69.56 68.58 72.23 68.60 68.82 68.54 67.74 66.56 67.19 66.99 67.95 68.23 68.68 69.73 70.67 71.09 71.16 71.54 72.39 73.08 73.91 74.74
71.89 71.15 70.43 70.17 68.78 69.62 69.39 68.17 69.14 67.82 66.39 67.44 68.39 69.63 67.94 68.54 69.69 72.12 71.75 71.43 71.17 67.65 67.58 68.03 66.53 66.79 66.96 66.85 66.72 67.14 68.12 68.80 69.55 70.23 71.44 72.25 72.86 73.52
69.29 69.37 68.22 67.47 66.87 65.57 64.68 62.76 60.29 60.56 61.86 64.58 67.40 67.19 67.78 68.10 67.50 68.84 69.89 70.50 69.92 69.25 68.90 68.49 66.70 65.88 65.66 65.32 65.26 65.37 65.51 65.94 66.92 68.01 69.11 70.72 71.62 72.02
67.66 66.85 65.81 66.04 64.93 63.89 62.79 59.34 55.94 55.47 56.11 57.43 56.46 59.81 64.81 66.39 63.99 68.27 66.95 68.70 68.16 67.36 66.37 66.26 65.43 65.89 65.99 64.87 64.11 63.66 62.56 62.47 63.43 64.41 65.66 67.18 69.05 70.44
65.95 65.11 63.29 61.64 60.85 61.27 62.44 61.58 61.04 60.42 57.12 54.60 54.76 55.31 57.18 59.82 58.76 58.16 59.59 64.78 66.00 67.86 67.87 66.72 66.43 66.71 65.57 64.63 64.48 64.36 62.01 60.66 60.92 60.72 61.61 62.94 65.03 66.84
62.53 61.73 59.43 58.24 57.56 57.52 57.09 57.89 59.13 57.36 56.95 56.39 56.94 55.96 54.95 55.57 56.93 57.91 57.20 57.33 58.62 63.04 63.53 64.49 62.80 64.33 66.17 64.88 66.19 65.71 64.20 62.69 61.62 59.60 58.82 58.98 59.89 61.86
61.12 61.27 61.65 59.67 58.69 57.18 56.24 55.84 57.07 57.74 57.01 56.12 55.65 55.87 58.86 58.97 59.14 58.32 57.83 56.11 54.10 60.99 59.95 59.12 61.45 61.93 64.71 65.41 65.91 66.69 65.72 63.59 61.52 60.51 58.49 57.71 58.07 58.94
60.43 60.06 59.55 59.63 60.70 59.26 58.46 59.32 60.02 59.39 57.58 57.77 56.24 57.01 57.13 58.65 59.55 58.73 59.51 58.65 57.19 58.27 59.11 57.01 60.35 58.68 62.22 60.31 62.29 63.29 63.36 61.54 60.22 59.77 58.90 57.75 57.19 56.83
60.47 59.99 59.81 59.92 57.33 55.99 55.56 56.18 57.03 57.77 58.43 57.89 57.87 57.47 58.04 58.15 57.08 56.67 58.25 58.22 58.14 58.41 60.22 54.33 58.67 58.78 60.64 61.67 61.48 61.60 60.39 59.27 58.55 57.62 56.97 55.98 54.86 54.38
61.20 60.96 60.59 59.37 53.32 52.40 54.46 54.37 55.23 55.86 57.80 58.92 58.17 57.05 56.61 56.62 56.24 55.67 54.15 53.48 53.18 55.36 59.92 58.71 58.30 59.12 60.64 60.67 62.08 61.73 59.62 58.04 57.10 56.89 56.88 55.91 54.30 53.98
61.29 61.80 59.05 57.68 53.56 52.00 54.23 53.45 52.63 54.27 55.73 55.52 55.08 56.19 57.52 57.66 57.51 56.91 56.46 53.68 53.47 53.30 58.96 57.52 57.52 58.57 56.40 60.81 61.57 62.68 63.97 57.27 56.35 55.96 56.25 56.17 54.46 60.39
56.58 56.98 57.53 53.83 51.90 51.54 51.22 54.12 53.97 54.48 54.08 54.20 54.80 55.87 56.73 56.28 56.25 58.05 58.02 56.22 53.95 53.37 56.83 56.24 55.23 56.01 56.70 56.88 59.70 61.69 62.86 63.31 62.38 61.47 54.66 54.58 54.08 57.54
55.36 55.67 57.43 52.13 50.93 50.95 52.11 53.73 53.48 53.19 53.73 53.28 52.85 52.78 52.70 53.30 54.55 55.16 56.52 56.90 56.22 55.89 57.14 59.09 54.94 54.81 54.08 53.80 53.76 58.06 60.57 62.57 63.43 63.43 64.00 59.36 53.10 53.18
56.14 55.43 53.09 51.43 50.80 52.18 53.11 53.15 53.22 54.61 53.47 52.69 51.91 51.87 53.70 54.58 57.13 56.75 56.90 57.36 57.47 56.69 57.36 58.93 56.00 56.38 55.63 53.48 53.77 55.33 55.52 58.31 60.60 61.14 62.34 63.58 62.93 63.82
56.03 55.71 54.35 53.62 53.06 53.95 54.60 55.30 55.19 54.57 53.68 52.88 52.61 52.33 54.20 54.08 53.11 53.73 52.32 52.52 51.49 52.22 56.55 57.28 57.17 56.43 54.40 54.68 54.72 53.75 56.11 54.16 57.98 59.28 60.06 60.41 63.85 64.21
50.15 53.41 53.45 53.94 53.89 53.10 54.83 55.18 54.55 55.16 54.21 54.18 53.27 53.19 51.68 52.63 52.61 53.79 51.59 51.01 49.40 49.69 50.40 52.77 55.27 56.58 55.47 55.10 52.81 53.65 53.76 56.06 56.83 57.53 58.79 58.80 61.62 63.07
50.78 51.92 52.57 53.68 52.56 52.81 54.80 54.37 54.73 54.75 54.55 54.35 53.97 53.52 53.01 52.28 52.72 52.79 52.58 50.71 49.11 49.29 49.50 50.40 50.64 50.49 51.37 54.12 56.62 53.57 54.42 55.03 56.56 56.82 57.98 56.77 57.48 62.09
50.77 52.63 54.22 54.56 54.69 55.12 54.19 53.42 52.90 53.77 55.01 53.03 52.40 52.11 52.03 53.12 52.60 51.78 51.90 49.82 49.34 49.70 50.33 51.37 50.14 47.84 45.58 45.31 52.00 55.25 54.00 54.80 55.16 55.09 56.32 55.93 55.73 57.77
51.91 53.01 54.23 55.46 54.87 54.95 54.86 54.40 54.52 53.58 51.66 50.97 50.41 50.04 50.20 50.57 50.48 49.80 50.49 52.16 49.98 51.64 50.04 51.26 50.27 48.27 45.95 45.77 47.72 50.95 51.14 52.76 54.64 54.43 54.66 56.09 57.66 56.95
55.44 55.07 55.38 55.36 55.11 55.35 54.01 51.99 50.92 49.70 49.55 49.29 49.16 49.13 49.24 49.33 48.71 49.67 49.65 48.92 50.49 50.79 49.88 49.44 49.74 51.23 49.71 50.10 46.73 46.95 49.91 51.00 52.94 54.42 54.28 53.60 52.97 54.12
55.20 55.03 55.32 55.86 55.04 51.37 49.83 49.13 48.60 48.50 48.19 48.30 48.33 48.79 49.02 49.16 48.30 47.33 48.15 49.00 49.57 49.24 50.37 50.58 51.61 50.21 49.26 47.31 45.58 47.17 49.21 52.54 53.20 52.42 52.63 52.72 52.89 50.78
55.34 55.22 55.17 54.57 51.29 49.38 48.62 48.40 47.88 47.52 47.42 47.03 46.65 46.17 46.47 47.17 47.55 47.73 48.10 48.55 48.83 48.80 49.08 49.83 48.23 49.14 47.48 46.79 46.45 46.29 47.60 49.11 51.01 51.92 54.44 53.58 52.92 52.67

GFSNE_sfc_wetblb_285.txt.gz
Wetbulb
68.43 67.80 67.73 68.32 68.02 67.35 66.96 66.04 63.49 60.21 61.52 64.95 64.81 69.02 68.95 69.72 70.55 70.52 69.91 70.27 70.39 70.18 70.30 71.96 70.38 70.39 70.72 70.96 71.50 72.18 73.18 73.00 72.39 72.58 73.08 73.80 75.19 76.46
67.60 65.82 64.81 65.64 64.99 65.18 63.43 62.29 61.41 62.92 59.87 64.44 65.43 67.22 67.78 69.75 70.68 69.70 69.88 69.74 69.19 69.36 69.17 69.05 69.44 69.53 69.25 69.72 69.81 70.11 70.47 70.79 70.82 71.01 71.06 71.23 71.59 72.31
65.69 64.66 63.64 63.04 61.44 60.45 59.08 59.00 57.56 58.68 60.68 63.10 64.70 65.28 65.78 65.20 66.12 67.39 68.91 67.33 68.02 67.47 67.35 67.70 67.70 67.38 67.32 67.40 67.75 67.51 67.41 67.66 67.94 68.40 69.27 70.11 70.59 70.92
63.04 61.38 60.86 62.03 58.60 58.92 56.20 54.59 53.44 55.19 58.62 58.14 58.62 59.80 63.31 62.93 61.35 63.16 67.23 69.94 68.38 68.68 67.40 66.95 66.93 66.33 65.85 65.66 65.63 65.59 65.39 65.48 65.64 66.08 66.78 67.79 68.85 69.59
58.27 55.56 54.63 53.92 52.66 54.32 52.43 54.16 53.85 54.70 53.28 54.26 55.54 58.89 59.82 59.90 58.39 58.99 60.11 62.04 66.82 67.93 67.13 66.66 66.39 66.20 65.82 64.87 64.25 63.82 63.05 62.94 62.85 63.07 63.80 64.68 66.01 67.46
55.64 53.34 52.37 52.57 51.53 51.44 51.32 52.13 52.18 52.06 51.92 51.78 51.62 51.53 53.82 54.48 55.09 53.79 54.46 57.59 57.73 59.98 62.58 62.94 64.00 65.75 65.60 64.44 64.13 64.00 62.35 61.18 60.36 60.35 60.77 61.08 62.49 64.15
54.80 54.12 53.74 56.96 58.88 56.84 51.82 50.84 51.23 51.34 50.73 49.19 48.96 49.55 51.52 52.49 52.46 53.73 52.31 53.70 56.18 56.76 55.78 56.28 56.43 56.18 58.19 60.27 62.95 64.98 63.64 62.48 61.23 59.81 59.07 58.84 59.29 60.27
55.85 54.02 55.13 58.16 57.13 59.39 58.54 59.39 58.13 50.44 49.60 49.08 49.30 48.20 49.18 51.64 52.01 51.24 50.43 50.48 50.05 54.79 54.69 54.74 55.27 54.89 55.85 56.63 61.35 61.52 61.38 62.20 62.36 61.20 59.95 58.66 58.05 58.31
53.74 54.89 55.81 58.00 57.16 51.74 55.73 56.27 55.25 57.83 57.96 52.35 50.08 50.44 50.61 51.68 51.08 49.29 48.22 47.91 47.20 49.74 50.65 49.67 53.33 53.40 55.47 57.11 59.51 60.02 60.27 60.21 60.97 61.47 60.61 59.16 57.70 56.78
55.76 54.52 53.66 55.52 53.82 51.20 49.90 49.32 49.92 50.37 50.22 51.49 49.50 50.97 51.53 50.49 49.55 49.85 49.06 48.95 49.88 51.17 50.73 47.62 50.24 51.09 54.73 56.02 59.73 60.32 59.84 59.73 59.26 58.68 58.97 58.41 56.65 55.44
54.73 57.44 56.57 52.62 55.31 55.46 49.68 48.52 48.41 49.29 54.46 57.20 56.61 56.78 57.18 57.52 56.82 50.10 47.99 46.21 45.87 47.88 50.81 49.83 50.40 49.89 52.25 54.02 56.26 59.74 58.47 57.41 56.79 57.40 58.27 57.53 55.46 53.58
49.85 51.14 57.90 51.68 53.86 53.35 46.98 45.90 46.32 47.56 49.19 49.50 49.28 50.67 52.96 51.40 57.43 53.11 52.79 50.22 49.36 47.60 50.96 50.55 48.65 49.12 47.82 51.74 52.65 53.37 54.42 55.64 55.37 55.33 55.25 55.38 54.04 53.46
48.61 48.54 49.34 54.44 53.04 52.28 52.57 46.29 47.49 49.24 51.06 49.26 48.18 48.49 49.28 48.57 49.65 51.76 53.81 53.60 51.30 50.27 53.59 52.66 49.84 47.10 47.39 47.68 50.14 52.92 52.01 52.74 53.86 54.84 54.98 52.82 52.06 52.38
48.48 50.38 49.23 53.06 51.86 51.72 51.57 51.95 52.66 53.24 50.60 47.85 47.02 47.22 47.22 47.85 49.55 49.70 49.81 51.39 53.21 51.87 50.80 50.53 48.37 47.35 46.34 47.37 47.01 49.89 52.12 52.14 52.69 53.43 54.20 54.18 53.65 52.84
49.26 52.20 53.74 51.40 51.07 50.98 52.89 53.77 54.53 49.53 47.84 46.95 47.62 49.14 50.76 51.55 51.69 51.01 50.50 50.75 50.20 50.69 53.12 51.58 51.15 50.11 49.21 48.93 49.02 49.42 49.95 50.39 51.91 51.84 52.87 53.54 54.40 53.80
53.14 47.93 50.37 52.41 53.16 52.51 52.38 51.68 50.35 49.76 49.94 49.78 49.99 51.94 52.59 51.75 51.49 51.68 50.66 50.45 48.24 48.62 50.07 51.06 50.68 50.40 48.84 50.16 50.64 50.02 51.25 48.30 49.53 50.45 51.00 52.46 53.50 53.33
45.98 44.15 44.65 45.16 46.34 47.53 47.90 49.56 52.18 51.44 51.21 51.99 51.80 51.51 51.11 51.23 51.00 51.97 51.11 50.77 48.56 48.76 47.42 47.68 49.13 49.51 50.04 49.10 47.42 48.80 49.05 50.96 52.53 51.38 49.87 49.72 51.76 53.36
43.36 42.88 44.56 45.40 46.48 47.24 47.63 51.21 51.40 51.54 50.50 49.93 49.50 49.35 48.98 49.32 49.60 50.23 50.17 49.60 48.99 49.43 49.17 48.74 46.76 45.99 45.92 47.32 52.33 47.87 48.74 49.50 50.85 51.95 52.42 51.36 51.80 52.66
42.28 45.24 45.01 47.48 49.02 48.57 48.22 47.03 48.13 48.86 48.98 48.19 48.27 48.27 48.30 48.63 48.72 48.46 48.66 48.82 48.30 48.97 49.36 50.16 48.51 46.05 43.42 43.16 45.89 53.27 46.54 47.83 48.07 48.57 51.21 51.76 52.11 53.46
44.41 45.80 47.92 50.21 49.50 48.67 48.48 47.72 47.36 47.60 48.22 48.39 48.20 48.16 48.42 47.64 46.86 47.18 47.72 47.32 47.60 48.10 48.39 50.27 49.18 48.01 46.03 45.25 45.75 45.54 50.15 46.05 45.77 46.12 47.52 49.21 51.76 55.01
46.67 47.91 49.36 48.88 47.12 47.65 47.79 47.45 47.25 47.99 48.26 47.92 47.12 46.51 46.04 44.44 43.17 44.14 44.73 45.90 46.74 47.60 47.13 48.32 50.09 53.07 51.63 49.62 46.00 43.62 46.02 49.48 49.32 48.17 48.08 47.12 47.92 49.79
47.71 48.87 48.94 46.91 46.16 46.38 47.08 47.15 47.81 47.69 46.55 46.06 45.57 42.60 41.84 40.65 37.87 37.77 40.22 39.88 39.60 43.99 47.10 48.77 50.27 51.42 49.37 47.24 44.99 42.94 44.67 46.33 48.95 51.15 52.01 51.15 48.66 46.00
48.68 48.93 47.36 46.58 45.77 46.81 47.48 47.78 47.19 46.38 45.93 44.57 42.17 41.66 41.14 37.88 36.79 36.94 38.28 38.42 39.18 40.62 44.86 46.20 47.76 49.77 48.19 47.16 46.37 44.59 43.55 45.16 46.65 44.67 46.79 51.17 52.49 52.63

GFSNE_sfc_wetblb_291.txt.gz
Wetbulb
63.22 62.95 62.78 63.11 60.64 60.27 59.15 59.83 63.38 59.89 59.29 63.85 62.59 65.70 65.70 67.98 69.80 68.48 69.69 70.26 69.46 69.23 69.22 69.33 69.80 69.87 70.52 71.53 71.57 71.59 72.01 72.51 72.61 72.94 72.82 74.11 74.73 75.28
61.75 59.67 58.39 56.62 55.78 55.88 57.51 57.51 56.98 61.05 60.64 63.54 64.70 64.55 63.59 64.74 66.72 67.14 68.99 69.57 69.54 69.17 68.70 68.77 68.84 68.65 68.50 68.92 69.50 69.65 70.17 70.66 71.01 71.33 71.32 71.60 72.33 73.47
60.16 58.19 56.08 56.18 54.29 52.22 52.31 52.36 52.05 53.66 59.89 62.03 62.28 63.20 62.71 60.25 60.78 63.18 65.63 67.48 67.41 68.11 68.09 66.70 66.16 66.16 65.69 65.82 66.97 67.57 68.16 68.60 69.34 69.93 69.91 69.99 70.22 71.18
54.86 52.96 53.46 53.70 50.05 49.82 49.45 49.38 50.05 50.82 51.37 49.55 52.73 57.03 61.18 57.51 58.71 59.02 60.40 61.82 63.48 67.16 66.36 65.76 65.49 65.73 65.41 64.95 65.20 65.13 65.16 66.27 66.21 66.26 67.04 67.40 67.94 68.65
51.82 51.07 50.28 48.91 47.47 47.96 48.13 48.52 48.50 49.54 48.01 48.22 48.74 51.74 53.38 54.05 55.25 56.40 57.03 56.97 57.71 63.72 61.52 61.07 61.94 61.41 60.75 59.98 60.50 62.52 61.95 61.79 62.24 62.43 63.28 64.24 65.63 66.48
49.30 49.60 49.81 48.58 48.03 48.20 49.18 48.96 48.40 48.21 47.62 46.51 46.76 47.55 49.20 50.93 51.73 52.49 50.68 53.68 52.49 58.47 59.45 59.99 59.36 59.05 59.11 59.62 59.85 60.60 58.91 59.84 59.51 59.04 59.55 60.33 61.95 63.60
50.13 50.96 50.34 51.66 55.24 52.52 50.22 48.99 48.12 46.98 46.88 46.37 46.16 46.18 46.33 47.64 48.25 49.54 48.24 49.31 50.16 52.48 50.15 52.20 55.02 57.23 56.16 57.37 58.19 58.06 59.56 58.75 58.17 57.85 57.50 57.41 58.19 59.91
50.11 50.96 52.80 58.74 57.39 58.74 58.31 56.74 51.53 46.94 44.80 45.87 45.13 44.25 44.71 46.28 48.21 47.76 46.50 45.41 44.27 48.18 47.54 48.16 50.75 51.37 54.81 56.92 58.30 58.11 58.02 59.21 58.59 58.09 57.48 56.86 57.48 58.02
51.90 52.06 52.50 56.76 56.58 50.71 55.85 55.11 52.90 54.06 53.21 48.02 45.25 44.59 44.94 47.36 47.20 45.69 44.97 44.65 44.40 46.75 47.31 46.12 48.24 48.74 51.14 53.65 58.07 59.00 58.80 59.18 58.71 58.18 57.66 56.84 57.04 56.89
51.90 52.15 52.10 52.57 53.93 51.30 48.74 48.30 47.75 47.38 47.29 48.58 46.97 47.12 48.08 48.74 47.80 46.63 45.68 45.04 45.84 47.33 48.23 44.82 47.54 47.89 49.84 50.90 58.09 58.22 57.76 56.95 56.65 56.30 56.14 55.04 54.16 54.13
48.91 49.48 53.22 51.61 55.30 57.61 49.15 48.15 45.72 45.46 50.23 54.33 55.80 56.77 56.51 56.78 55.11 48.90 46.54 44.50 43.77 44.91 47.12 46.47 47.30 47.74 48.15 49.08 50.66 56.82 56.20 54.69 54.38 54.92 55.43 54.75 52.45 52.92
45.84 47.57 53.81 54.93 55.26 56.42 49.08 44.54 42.66 43.83 44.70 45.49 46.86 48.66 50.60 49.21 54.07 50.09 48.46 45.71 43.82 43.68 47.68 47.46 46.36 47.04 45.10 46.40 48.19 48.18 48.71 52.34 52.75 53.11 53.65 53.64 52.04 53.09
45.68 46.63 48.57 53.96 53.42 52.99 53.05 45.16 45.08 46.81 48.24 46.06 45.92 46.83 47.87 48.12 48.19 48.33 47.71 48.10 46.00 45.64 48.94 49.39 46.85 45.86 45.30 44.96 45.38 47.16 47.48 48.26 49.74 50.76 51.51 51.32 51.28 52.50
45.61 46.25 48.83 51.95 51.30 51.84 51.88 52.07 52.78 53.33 48.74 46.68 46.76 48.35 49.12 49.30 50.21 50.77 50.87 49.17 50.24 49.66 50.35 51.05 47.89 46.50 44.21 42.58 43.10 46.38 47.54 48.31 48.59 49.36 50.45 51.30 51.75 52.83
47.49 48.82 51.48 51.00 50.89 50.51 51.42 51.99 52.79 48.57 47.12 47.35 48.62 49.42 50.29 50.91 51.03 51.09 51.58 51.55 51.78 51.17 52.24 50.36 49.86 48.06 48.26 44.69 44.79 45.06 45.79 47.51 48.92 48.92 49.31 49.98 51.00 52.37
50.22 45.85 48.84 50.69 51.51 50.67 50.11 47.86 46.49 46.32 46.62 46.92 48.79 50.23 50.95 50.68 50.66 51.41 50.61 50.88 50.42 50.55 51.66 52.08 51.13 50.80 49.20 48.77 48.64 47.06 46.50 46.07 47.55 48.23 48.65 48.50 49.44 50.71
45.80 42.81 42.39 42.00 42.69 44.21 43.59 44.47 45.62 46.42 46.94 46.92 46.87 47.24 48.44 48.68 48.66 49.51 48.89 48.51 47.57 48.09 48.64 51.11 51.17 51.42 50.94 50.33 47.76 48.95 48.13 46.66 48.61 48.71 46.83 46.85 48.12 49.14
42.75 41.33 42.39 41.94 42.50 43.03 43.13 44.42 45.79 47.52 44.73 47.04 47.73 47.71 47.31 47.25 47.55 48.11 47.97 47.00 46.30 46.86 47.33 49.06 50.43 47.66 48.04 49.46 52.48 48.72 47.77 47.46 46.88 47.04 46.70 45.87 46.31 48.68
40.67 41.53 41.78 43.29 43.51 43.31 43.90 44.61 43.88 44.15 44.83 47.38 47.17 47.69 47.59 47.18 45.44 42.52 41.97 40.86 39.86 41.33 44.79 48.19 48.91 48.53 46.04 45.01 49.63 53.03 48.36 46.27 45.26 44.58 46.18 46.34 46.38 47.61
41.06 42.41 43.25 43.28 43.88 44.38 44.94 43.74 43.36 43.71 46.67 47.30 47.81 47.44 46.09 42.41 40.84 38.98 40.31 39.51 38.01 38.56 40.01 42.80 44.46 47.92 46.79 47.04 47.29 47.82 50.25 48.82 45.90 44.51 44.11 44.98 46.39 50.58
43.66 44.07 44.16 44.32 44.74 44.75 43.78 43.15 43.10 45.75 47.63 47.78 46.54 45.09 42.44 40.47 39.34 40.39 40.52 40.29 39.75 38.60 38.06 39.37 42.14 46.14 46.42 50.16 47.30 47.33 47.59 49.74 49.39 46.87 44.19 43.39 42.81 43.20
46.53 45.80 45.70 45.41 44.74 43.70 42.94 42.90 44.74 46.72 46.99 45.76 45.44 41.75 39.31 41.82 41.09 41.01 40.55 39.21 38.67 38.85 38.85 40.12 41.53 42.80 45.74 47.59 46.83 47.78 47.67 47.86 49.70 50.98 50.05 48.63 43.54 41.21
45.30 44.65 45.46 45.25 43.86 43.27 44.98 44.89 44.76 46.63 45.73 44.99 43.24 41.26 40.28 40.41 41.52 41.90 41.19 40.83 40.69 40.16 40.34 40.54 42.37 44.52 45.92 45.98 46.65 47.40 47.06 46.39 46.40 45.99 47.02 49.89 51.67 51.63